Weather History for KD50 - November, 2012

Change the Weather History Date:

Monday, November 19, 2012

  Actual Average (KISN) Record (KISN)
Temperature  
Mean Temperature 31 °F 25 °F  
Max Temperature 39 °F 36 °F 69 °F (1897)
Min Temperature 23 °F 15 °F -24 °F (1896)
Degree Days  
Heating Degree Days 34 40  
Month to date heating degree days 660  
Since 1 July heating degree days 1687  
Cooling Degree Days 0 0  
Month to date cooling degree days 0  
Year to date cooling degree days 456  
Moisture  
Dew Point 25 °F    
Average Humidity 77    
Maximum Humidity 93    
Minimum Humidity 61    
Precipitation  
Precipitation 0.00 in 0.02 in 0.31 in (1996)
Month to date precipitation 0.45  
Year to date precipitation 13.55  
Sea Level Pressure  
Sea Level Pressure 29.99 in    
Wind  
Wind Speed 12 mph (SSW)    
Max Wind Speed 17 mph    
Max Gust Speed 21 mph    
Visibility 10 miles    
Events      
T = Trace of Precipitation, MM = Missing Value Source: NWS Daily Summary

Daily Weather History Graph

Daily Weather History Graph

Search for Another Location

Airport or City:

Trip Planner

Search our weather history database for the weather conditions in past years. The results will help you decide how hot, cold, wet, or windy it might be!

Date:

Astronomy

Nov. 19, 2012 Rise Set
Actual Time 8:09 AM CST 5:07 PM CST
Civil Twilight 7:34 AM CST 5:42 PM CST
Nautical Twilight 6:55 AM CST 6:21 PM CST
Astronomical Twilight 6:17 AM CST 6:58 PM CST
Moon 1:01 PM CST (11/19) 11:51 PM CST (11/19)
Length of Visible Light 10h 08m
Length of Day
8h 58m
Waxing Crescent, 41% of the Moon is Illuminated
Nov 19
Waxing Crescent
Nov 20
First Quarter
Nov 28
Full
Dec 6
Last Quarter
Dec 13
New

Hourly Weather History & Observations

Time (CST) Temp. Windchill Dew Point Humidity Pressure Visibility Wind Dir Wind Speed Gust Speed Precip Events Conditions
12:15 AM 33.8 °F 23.9 °F 28.4 °F 81% 29.92 in 10.0 mi West 15.0 mph - N/A   Clear
12:35 AM 33.8 °F 24.3 °F 28.4 °F 81% 29.93 in 10.0 mi WNW 13.8 mph - N/A   Clear
12:55 AM 33.8 °F 24.3 °F 28.4 °F 81% 29.93 in 10.0 mi West 13.8 mph - N/A   Clear
1:15 AM 33.8 °F 24.3 °F 28.4 °F 81% 29.94 in 10.0 mi WNW 13.8 mph - N/A   Clear
1:35 AM 33.8 °F 23.9 °F 26.6 °F 75% 29.94 in 10.0 mi West 15.0 mph - N/A   Clear
1:55 AM 33.8 °F 24.8 °F 26.6 °F 75% 29.95 in 10.0 mi West 12.7 mph - N/A   Clear
2:15 AM 32.0 °F 23.6 °F 26.6 °F 80% 29.96 in 10.0 mi West 10.4 mph - N/A   Clear
2:35 AM 30.2 °F 23.4 °F 24.8 °F 80% 29.96 in 10.0 mi WSW 6.9 mph - N/A   Clear
2:55 AM 28.4 °F 21.2 °F 24.8 °F 86% 29.97 in 10.0 mi WSW 6.9 mph - N/A   Clear
3:15 AM 28.4 °F 20.4 °F 24.8 °F 86% 29.99 in 10.0 mi SSW 8.1 mph - N/A   Clear
3:35 AM 26.6 °F 17.5 °F 23.0 °F 86% 30.00 in 10.0 mi SSW 9.2 mph - N/A   Clear
3:55 AM 24.8 °F 16.9 °F 23.0 °F 93% 30.00 in 10.0 mi SW 6.9 mph - N/A   Clear
4:15 AM 23.0 °F 13.1 °F 21.2 °F 93% 30.01 in 10.0 mi SSW 9.2 mph - N/A   Clear
4:35 AM 24.8 °F 15.3 °F 23.0 °F 93% 30.01 in 10.0 mi SSW 9.2 mph - N/A   Clear
4:55 AM 24.8 °F 16.1 °F 23.0 °F 93% 30.01 in 10.0 mi SSW 8.1 mph - N/A   Clear
5:15 AM 24.8 °F 16.1 °F 21.2 °F 86% 30.01 in 10.0 mi SSW 8.1 mph - N/A   Clear
5:35 AM 24.8 °F 15.3 °F 21.2 °F 86% 30.01 in 10.0 mi SSW 9.2 mph - N/A   Clear
5:55 AM 24.8 °F 14.6 °F 21.2 °F 86% 30.02 in 10.0 mi SSW 10.4 mph - N/A   Clear
6:15 AM 24.8 °F 15.3 °F 21.2 °F 86% 30.02 in 10.0 mi SW 9.2 mph - N/A   Clear
6:35 AM 24.8 °F 15.3 °F 21.2 °F 86% 30.02 in 10.0 mi SSW 9.2 mph - N/A   Clear
6:55 AM 23.0 °F 13.9 °F 19.4 °F 86% 30.03 in 10.0 mi SSW 8.1 mph - N/A   Clear
7:35 AM 23.0 °F 13.1 °F 19.4 °F 86% 30.03 in 10.0 mi SW 9.2 mph - N/A   Clear
7:55 AM 23.0 °F 12.4 °F 19.4 °F 86% 30.04 in 10.0 mi SSW 10.4 mph - N/A   Clear
8:15 AM 23.0 °F 13.1 °F 19.4 °F 86% 30.04 in 10.0 mi SW 9.2 mph - N/A   Clear
8:35 AM 23.0 °F 12.4 °F 19.4 °F 86% 30.04 in 10.0 mi South 10.4 mph - N/A   Clear
8:55 AM 23.0 °F 12.4 °F 19.4 °F 86% 30.04 in 10.0 mi South 10.4 mph - N/A   Clear
9:15 AM 23.0 °F 11.7 °F 19.4 °F 86% 30.04 in 10.0 mi SSW 11.5 mph - N/A   Clear
9:35 AM 24.8 °F 14.6 °F 19.4 °F 80% 30.04 in 10.0 mi SSW 10.4 mph - N/A   Clear
9:55 AM 24.8 °F 13.4 °F 19.4 °F 80% 30.04 in 10.0 mi SSW 12.7 mph - N/A   Clear
10:15 AM 26.6 °F 15.7 °F 21.2 °F 80% 30.04 in 10.0 mi SSW 12.7 mph - N/A   Clear
10:35 AM 26.6 °F 16.2 °F 23.0 °F 86% 30.04 in 10.0 mi SSW 11.5 mph - N/A   Clear
10:55 AM 30.2 °F 20.2 °F 23.0 °F 75% 30.05 in 10.0 mi SSW 12.7 mph - N/A   Clear
11:15 AM 32.0 °F 21.2 °F 24.8 °F 75% 30.05 in 10.0 mi SSW 16.1 mph - N/A   Clear
11:35 AM 32.0 °F 22.5 °F 24.8 °F 75% 30.06 in 10.0 mi SSW 12.7 mph - N/A   Clear
11:55 AM 32.0 °F 21.6 °F 24.8 °F 75% 30.05 in 10.0 mi SSW 15.0 mph - N/A   Clear
12:15 PM 32.0 °F 22.5 °F 26.6 °F 80% 30.04 in 10.0 mi SSW 12.7 mph - N/A   Clear
12:35 PM 33.8 °F 25.3 °F 26.6 °F 75% 30.04 in 10.0 mi SSW 11.5 mph - N/A   Clear
12:55 PM 35.6 °F 27.5 °F 26.6 °F 70% 30.04 in 10.0 mi SSW 11.5 mph - N/A   Clear
1:15 PM 35.6 °F 26.2 °F 28.4 °F 75% 30.04 in 10.0 mi SSW 15.0 mph - N/A   Clear
1:35 PM 37.4 °F 28.9 °F 28.4 °F 70% 30.04 in 10.0 mi SSW 13.8 mph - N/A   Clear
1:55 PM 37.4 °F 29.3 °F 28.4 °F 70% 30.03 in 10.0 mi South 12.7 mph - N/A   Clear
2:15 PM 37.4 °F 28.9 °F 28.4 °F 70% 30.02 in 10.0 mi South 13.8 mph - N/A   Clear
2:35 PM 37.4 °F 29.3 °F 28.4 °F 70% 30.00 in 10.0 mi South 12.7 mph - N/A   Clear
2:55 PM 37.4 °F 29.3 °F 28.4 °F 70% 30.01 in 10.0 mi South 12.7 mph - N/A   Clear
3:15 PM 39.2 °F 32.0 °F 28.4 °F 65% 30.01 in 10.0 mi South 11.5 mph - N/A   Clear
3:35 PM 37.4 °F 28.9 °F 28.4 °F 70% 30.01 in 10.0 mi South 13.8 mph - N/A   Clear
3:55 PM 37.4 °F 28.9 °F 28.4 °F 70% 30.01 in 10.0 mi South 13.8 mph - N/A   Clear
4:15 PM 37.4 °F 29.8 °F 28.4 °F 70% 30.01 in 10.0 mi South 11.5 mph - N/A   Clear
4:35 PM 37.4 °F 29.8 °F 28.4 °F 70% 30.01 in 10.0 mi South 11.5 mph - N/A   Clear
4:55 PM 37.4 °F 29.3 °F 28.4 °F 70% 30.01 in 10.0 mi South 12.7 mph - N/A   Clear
5:15 PM 37.4 °F 29.3 °F 28.4 °F 70% 30.00 in 10.0 mi South 12.7 mph - N/A   Clear
5:35 PM 37.4 °F 28.2 °F 28.4 °F 70% 29.99 in 10.0 mi South 16.1 mph - N/A   Clear
5:55 PM 37.4 °F 28.9 °F 28.4 °F 70% 29.99 in 10.0 mi South 13.8 mph - N/A   Clear
6:15 PM 37.4 °F 29.3 °F 28.4 °F 70% 29.99 in 10.0 mi South 12.7 mph - N/A   Clear
6:35 PM 37.4 °F 28.5 °F 28.4 °F 70% 29.98 in 10.0 mi South 15.0 mph - N/A   Clear
6:55 PM 37.4 °F 28.9 °F 28.4 °F 70% 29.98 in 10.0 mi South 13.8 mph - N/A   Clear
7:15 PM 35.6 °F 27.1 °F 28.4 °F 75% 29.97 in 10.0 mi South 12.7 mph - N/A   Clear
7:35 PM 37.4 °F 28.9 °F 28.4 °F 70% 29.97 in 10.0 mi South 13.8 mph - N/A   Clear
7:55 PM 37.4 °F 29.3 °F 28.4 °F 70% 29.96 in 10.0 mi South 12.7 mph - N/A   Clear
8:15 PM 37.4 °F 29.3 °F 28.4 °F 70% 29.96 in 10.0 mi South 12.7 mph - N/A   Clear
8:35 PM 37.4 °F 29.3 °F 28.4 °F 70% 29.96 in 10.0 mi South 12.7 mph 18.4 mph N/A   Clear
8:55 PM 39.2 °F 30.5 °F 26.6 °F 61% 29.94 in 10.0 mi South 16.1 mph - N/A   Clear
9:15 PM 39.2 °F 30.2 °F 26.6 °F 61% 29.94 in 10.0 mi South 17.3 mph - N/A   Clear
9:35 PM 39.2 °F 32.0 °F 26.6 °F 61% 29.93 in 10.0 mi South 11.5 mph - N/A   Clear
9:55 PM 37.4 °F 28.9 °F 28.4 °F 70% 29.93 in 10.0 mi South 13.8 mph - N/A   Clear
10:15 PM 35.6 °F 28.0 °F 28.4 °F 75% 29.92 in 10.0 mi South 10.4 mph - N/A   Clear
10:35 PM 35.6 °F 26.2 °F 26.6 °F 70% 29.91 in 10.0 mi South 15.0 mph - N/A   Clear
10:55 PM 35.6 °F 26.2 °F 26.6 °F 70% 29.90 in 10.0 mi South 15.0 mph - N/A   Clear
11:15 PM 35.6 °F 26.2 °F 26.6 °F 70% 29.90 in 10.0 mi South 15.0 mph - N/A   Clear
11:35 PM 37.4 °F 28.5 °F 26.6 °F 65% 29.90 in 10.0 mi South 15.0 mph 20.7 mph N/A   Clear
11:55 PM 35.6 °F 26.2 °F 26.6 °F 70% 29.89 in 10.0 mi South 15.0 mph 20.7 mph N/A   Clear